Location: Lake_James_State_Park
(35.7270°N, 81.9020°W)
Time: 10:24:48
(UTC-05:00)

Daily predictions for brighter satellites

Satellite Brightness Start Highest point End
(mag) Time Altitude Azimuth Time Altitude Azimuth Time Altitude Azimuth
Thor Agena Rocket 3.7 17:32:56 10° NNE 17:38:07 60° ESE 17:43:19 10° S
NOSS 2-1 (E) 4.0 17:36:23 10° S 17:39:57 37° ESE 17:43:45 10° NE
Cosmos 1743 4.3 17:38:47 10° NE 17:41:15 16° ENE 17:43:42 10° ESE
Cosmos 1500 3.9 17:37:45 10° NNE 17:41:16 34° E 17:44:47 10° SE
Cosmos 2251 Rocket 3.8 17:36:16 10° NNW 17:41:37 80° WSW 17:46:54 10° SSE
AQUARIUS 4.2 17:44:19 10° SSE 17:48:43 58° ENE 17:53:09 10° N
Cosmos 2366 rocket 4.1 17:43:24 10° N 17:49:46 86° E 17:56:02 10° S
Cosmos 1484 Rocket 3.9 17:50:01 10° ESE 17:52:54 21° ENE 17:55:45 10° NNE
PAYLOAD A 4.3 17:52:17 10° S 17:57:04 70° WSW 18:02:05 10° NNW
Cosmos 1238 Rocket 3.9 17:54:43 10° SSW 17:57:26 34° W 18:00:19 10° NNW
Cosmos 2218 Rocket 4.4 17:53:53 10° NNW 18:00:05 68° W 18:06:11 10° S
USA 234 3.6 17:54:31 10° NE 18:00:58 65° NW 18:07:25 10° WSW
Cosmos 1975 2.8 17:57:07 10° N 18:01:11 84° E 18:05:11 10° S
CZ-4 R/B 1.9 18:01:03 10° S 18:05:11 65° WSW 18:09:18 10° NNW
Meteor 1-13 Rocket 4.3 18:01:22 10° S 18:06:56 63° E 18:12:41 10° NNE
MSX 3.8 18:02:32 10° SSE 18:08:10 63° ENE 18:13:51 10° N
MOS 1 4.4 18:02:40 10° SSE 18:08:20 83° WSW 18:14:01 10° NNW
Cosmos 2369 Rocket 4.0 18:07:12 10° ESE 18:08:42 11° E 18:08:55 11° E
CORIOLIS 4.2 18:06:56 10° SSE 18:12:21 89° E 18:17:46 10° NNW
MONITOR-E 4.4 18:09:43 10° SSE 18:12:47 47° ENE 18:15:54 10° N
Meteor 2-4 Rocket 4.1 18:07:54 10° SSE 18:12:49 37° E 18:17:42 10° NNE
CZ-2C R/B 2.7 18:08:21 10° S 18:13:20 74° WSW 18:18:29 10° NNW
Abrixas 3.3 18:11:10 10° NW 18:13:51 30° NNE 18:15:00 22° ENE
NOSS 3-4 (A) 4.4 18:08:54 10° NNW 18:15:09 33° NE 18:21:41 10° ESE
NOSS 3-4 (C) 4.5 18:09:01 10° NNW 18:15:15 32° NE 18:21:45 10° ESE
COSMO-SKYMED 1 2.8 18:11:17 10° NNE 18:15:32 50° E 18:19:44 10° S
COSMOS 2441 4.4 18:11:52 10° SSE 18:16:39 62° ENE 18:21:29 10° N
CZ-3B DEB 3.7 18:14:28 10° WNW 18:18:08 27° NNW 18:25:45 10° NE
Meteor 2-14 Rocket 4.5 18:12:45 10° N 18:18:49 58° E 18:24:49 10° SSE
Cosmos 2056 Rocket 3.9 18:14:20 10° S 18:19:23 43° ESE 18:23:51 13° NE
Cosmos 1821 Rocket 4.1 18:17:25 10° N 18:23:16 46° E 18:29:06 10° SSE
Cosmos 921 Rocket 3.2 18:19:19 10° SSW 18:23:32 72° WNW 18:27:53 10° N
Cosmos 1025 Rocket 3.3 18:19:36 10° SSE 18:23:48 47° E 18:28:02 10° NNE
Timation 2 Rocket 4.1 18:18:19 10° NNW 18:25:13 78° ENE 18:32:05 10° SSE
ATLAS 2AS CENTAUR R/B 4.5 18:22:51 10° NW 18:30:02 39° WSW 18:36:43 10° S
Cosmos 1624 Rocket 4.0 18:27:17 10° S 18:32:23 63° ESE 18:36:47 14° NNE
Cosmos 1340 4.1 18:32:54 10° SSE 18:34:57 22° ESE 18:34:57 22° ESE
YAOGAN 1 4.0 18:32:35 10° S 18:36:39 40° W 18:40:45 10° NNW
Cosmos 1371 Rocket 4.0 18:32:41 10° SSW 18:38:03 90° W 18:43:24 10° NNE
Meteor 2-16 Rocket 4.3 18:37:48 10° N 18:43:55 86° E 18:50:00 10° S
METEOR-M 4.4 18:42:24 10° SE 18:47:22 41° ENE 18:52:22 10° N
Orbus 7S? 4.4 18:52:39 10° SSW 18:54:06 22° S 18:54:06 22° S
Cosmos 1666 2.5 18:51:47 10° N 18:55:39 75° E 18:59:31 10° S
GEOS 3 Rocket 4.2 19:00:06 35° NE 19:00:06 35° NE 19:04:19 10° NNW
Delta 2 Rocket 3.0 19:01:48 10° W 19:05:33 88° S 19:05:39 85° ESE
Cosmos 1727 Rocket 4.0 19:02:12 10° SSE 19:08:15 57° E 19:10:52 33° NNE
Cosmos 1452 Rocket 3.6 19:03:20 10° S 19:08:13 49° ESE 19:08:13 49° ESE
Cosmos 1833 Rocket 3.3 19:03:52 10° NNW 19:09:23 57° WSW 19:14:51 10° S
Cosmos 1190 Rocket 3.8 19:07:40 10° NNW 19:12:54 71° ENE 19:15:37 28° SSE
Tiangong 1 3.8 19:13:21 10° NW 19:14:01 14° NW 19:14:01 14° NW
Cosmos 1892 Rocket 3.6 19:11:51 10° SSW 19:16:11 74° W 19:17:15 50° NNW
Cosmos 2082 Rocket 3.5 19:11:15 10° NW 19:16:33 41° WSW 19:21:50 10° S
FALCON 9 R/B 3.1 18:59:37 10° W 19:22:12 85° S 19:24:36 48° E
Cosmos 1726 Rocket 3.8 19:22:08 10° NNW 19:26:33 67° W 19:30:58 10° S
Okean 2 4.5 19:25:09 10° SSW 19:29:07 43° W 19:30:08 36° NW
Cosmos 1339 Rocket 4.4 19:39:10 10° S 19:45:14 80° W 19:45:55 70° NNW
Cosmos 2369 Rocket 2.6 19:46:15 10° SSW 19:50:46 58° SW 19:50:46 58° SW
NOSS 3-4 (A) 4.5 19:59:26 10° NW 20:06:20 53° WSW 20:11:08 22° S
NOSS 3-4 (C) 4.4 19:59:31 10° NW 20:06:26 53° WSW 20:10:59 24° S
BREEZE M DEB (TANK) 4.4 20:12:04 10° NW 20:17:40 87° NE 20:18:05 83° ESE
ATLAS 3B CENTAUR R/B 3.8 20:08:59 10° W 20:22:46 42° SSW 20:23:22 42° SSW
